Regional Weather Roundup
Issued by NWS

Home | Current Version | Previous Version | Graphics & Text | Print | Product List | Glossary On
Versions: 1 2 3 4 5 6 7 8 9 10 11 12 13 14 15 16 17 18 19 20 21 22 23 24 25 26 27 28 29 30 31 32 33 34 35 36 37 38 39 40 41 42 43 44 45 46 47 48 49 50
000
ASUS45 KBOU 231910
RWRCO

WEATHER ROUNDUP FOR COLORADO
NATIONAL WEATHER SERVICE DENVER/BOULDER CO
100 PM MDT MON APR 23 2018

NOTE: "FAIR" INDICATES FEW OR NO CLOUDS BELOW 12000 FEET WITH NO
SIGNIFICANT WEATHER AND/OR OBSTRUCTIONS TO VISIBILITY.

COZ001>005-013-030-031-232000-
...NORTHWEST COLORADO...

CITY           SKY/WX    TMP DP  RH WIND       PRES   REMARKS
CRAIG          FAIR      66  35  31 W10G25    30.09F
HAYDEN         FAIR      62  34  35 W15G23    30.10F
MEEKER         FAIR      68  32  26 NW10G17   30.08F
RANGELY        FAIR      71  31  23 W14G20    30.05F
RABBIT EARS PA CLOUDY    46  28  49 W9G18     30.27F
STEAMBOAT SPGS FAIR      64  32  30 SW10G18   30.09F
WALDEN         FAIR      59  23  25 SW13G21   30.16F
$$

COZ006>008-011-232000-
...WEST CENTRAL VALLEYS...

CITY           SKY/WX    TMP DP  RH WIND       PRES   REMARKS
GRAND JUNCTION FAIR      75  32  20 VRB5      30.03F
MONTROSE       FAIR      75  13   9 SW18G28   30.08F
EAGLE          FAIR      68  25  19 W24G35    30.10F
RIFLE          HAZE      72  30  21 W18G30    30.05F VSB 3/4
DELTA          FAIR      77  22  13 W6        30.06F
NUCLA          FAIR      73  19  13 W13G22    30.13F
$$

COZ017>023-064>068-232000-
...SOUTHWEST COLORADO...

CITY           SKY/WX    TMP DP  RH WIND       PRES   REMARKS
DURANGO        PTSUNNY   68  19  15 W15       30.15F
CORTEZ         FAIR      74  19  12 W10G23    30.14F
PAGOSA SPRINGS CLOUDY    63  14  14 SW9       30.21F
TELLURIDE      CLOUDY    57  20  23 W10G20    30.30F
WOLF CREEK PAS FAIR      41  21  45 SW10G20   30.46F
$$

COZ009-010-012-014-032>034-037-058>063-232000-
...CENTRAL COLORADO...

CITY           SKY/WX    TMP DP  RH WIND       PRES   REMARKS
ASPEN          FAIR      61  27  27 S10       30.18S
BUENA VISTA    FAIR      64  20  19 SW18G26   30.17F
COPPER MTN     NOT AVBL
BERTHOUD PASS  PTSUNNY   32  23  69 NW32G52   30.35R WCI  17
COTTONWOOD PAS FAIR      55  23  28 W14G28    30.27F
GUNNISON       PTSUNNY   64  21  19 W16G28    30.18F
GRANBY         MOCLDY    56  28  33 NW12G25   30.17F
KREMMLING      FAIR      70  27  19 SW8G25    30.13F
LEADVILLE      CLOUDY    48  23  37 NW16G26   30.25F
MONARCH PASS   FAIR      41  21  45 W41       30.46F
SALIDA         CLOUDY    63  25  23 NW17G35   30.24S
SUNLIGHT       PTSUNNY   43  21  42 W10G24    30.34F
WILKERSON PASS CLOUDY    43  23  45 NW3       30.36F
$$

COZ069>075-232000-
...SAN LUIS VALLEY/SANGRE DE CRISTO MOUNTAINS...

CITY           SKY/WX    TMP DP  RH WIND       PRES   REMARKS
ALAMOSA        FAIR      65  18  16 VRB5      30.17F
DEL NORTE      FAIR      61  24  23 CALM      30.20F
LA VETA PASS   FAIR      52  23  32 SW10G25   30.42F
SAGUACHE       NOT AVBL
$$

COZ035-036-038>040-232000-
...NORTHERN COLORADO FRONT RANGE...

CITY           SKY/WX    TMP DP  RH WIND       PRES   REMARKS
DENVER INTL AP PTSUNNY   66  42  41 E12       30.03F
AURORA         NOT AVBL
FRONT RANGE AP PTSUNNY   68  43  40 E15       30.06F
ERIE MUNI ARPT FAIR      64  40  42 E5        30.08F
BOULDER MUN AP FAIR      63  41  45 E6        30.03F
CENTENNIAL     PTSUNNY   68  36  30 E9        30.05F
BROOMFIELD     PTSUNNY   64  39  39 NE9       30.05F
FORT COLLINS   FAIR      61  42  49 SE12      30.03F
LONGMONT       FAIR      67  41  38 SE8       30.04F
$$

COZ041-046-047-076>085-087-088-232000-
...PIKES PEAK/PALMER DIVIDE AND SOUTHERN FOOTHILLS...

CITY           SKY/WX    TMP DP  RH WIND       PRES   REMARKS
COLO. SPRINGS  PTSUNNY   62  39  42 SE10G16   30.10F
A. F. ACADEMY  NOT AVBL
SCHRIEVER AFB  NOT AVBL
CHEYENNE MTN   NOT AVBL
ELLICOTT         N/A    N/A N/A N/A S13G20    30.09F
FALCON         FAIR      64  34  32 SE9G16    30.14F
FORT CARSON    NOT AVBL
LIMON          FAIR      62  38  40 SE17G25   30.09F
MONUMENT HILL  FAIR      63  27  25 NW8G17    30.12F
CANON CITY     FAIR      72  41  33 E14G23    30.03F
WALSENBURG     NOT AVBL
TRINIDAD       FAIR      72  31  22 E12       30.07F
$$

COZ042>045-048>051-090-091-232000-
...NORTHEAST COLORADO...

CITY           SKY/WX    TMP DP  RH WIND       PRES   REMARKS
GREELEY ARPT   FAIR      67  42  40 SE10G18   30.03F
AKRON          FAIR      62  43  49 S15G25    30.08F
BURLINGTON     FAIR      62  41  46 S14G25    30.11F
WRAY           FAIR      64  39  39 SE15G22   30.10F
YUMA           FAIR      61  32  33 SE16G23   30.09F
STERLING       NOT AVBL
HOLYOKE        FAIR      64  41  42 S14       30.10F
FORT MORGAN    FAIR      68  35  29 SE14G20   30.05F
$$

COZ086-089-092>099-232000-
...SOUTHEAST COLORADO...

CITY           SKY/WX    TMP DP  RH WIND       PRES   REMARKS
PUEBLO         FAIR      67  37  33 SE10      30.04F
LA JUNTA       FAIR      67  41  38 VRB7      30.05F
LAMAR          FAIR      67  41  38 SE16G28   30.06F
SPRINGFIELD      N/A     67  42  40 S17G26    30.09F
$$



USA.gov is the U.S. government's official web portal to all federal, state and local government web resources and services.